This is the latest recevied weather packets stored in our database for station/object IW2NIA-3. If no packets are shown the sender has not sent any weather packets the latest 10 day(s).
| Time | Temp. | Humidity | Pressure | Rain* | Wind** | Luminosity | Snow |
|---|---|---|---|---|---|---|---|
| 1777646017 | 19.44° C | 42% | 1024.9 hPa | 0 mm | - | - | - |
| 1777645114 | 19.44° C | 40% | 1025.1 hPa | 0 mm | - | - | - |
| 1777644210 | 19.44° C | 40% | 1025.3 hPa | 0 mm | - | - | - |
| 1777643322 | 19.44° C | 41% | 1025.5 hPa | 0 mm | - | - | - |
| 1777642418 | 19.44° C | 40% | 1025.6 hPa | 0 mm | - | - | - |
| 1777641514 | 18.89° C | 39% | 1025.8 hPa | 0 mm | - | - | - |
| 1777640614 | 19.44° C | 42% | 1025.9 hPa | 0 mm | - | - | - |
| 1777639707 | 18.33° C | 42% | 1026.1 hPa | 0 mm | - | - | - |
| 1777638824 | 18.33° C | 43% | 1026.3 hPa | 0 mm | - | - | - |
| 1777637913 | 18.33° C | 41% | 1026.4 hPa | 0 mm | - | - | - |
| 1777637027 | 17.78° C | 44% | 1026.4 hPa | 0 mm | - | - | - |
| 1777636119 | 17.78° C | 41% | 1026.6 hPa | 0 mm | - | - | - |
| 1777635209 | 18.33° C | 45% | 1026.7 hPa | 0 mm | - | - | - |
| 1777634324 | 16.67° C | 41% | 1026.9 hPa | 0 mm | - | - | - |
| 1777633421 | 16.67° C | 43% | 1027 hPa | 0 mm | - | - | - |
| 1777632513 | 16.67° C | 41% | 1027.2 hPa | 0 mm | - | - | - |
| 1777631624 | 16.67° C | 43% | 1027.3 hPa | 0 mm | - | - | - |
| 1777630718 | 16.11° C | 42% | 1027.5 hPa | 0 mm | - | - | - |
| 1777629811 | 16.11° C | 42% | 1027.6 hPa | 0 mm | - | - | - |
| 1777628928 | 16.11° C | 42% | 1027.6 hPa | 0 mm | - | - | - |
| 1777628024 | 15.56° C | 46% | 1027.6 hPa | 0 mm | - | - | - |
| 1777627117 | 15.56° C | 45% | 1027.6 hPa | 0 mm | - | - | - |
| 1777626214 | 15° C | 44% | 1027.6 hPa | 0 mm | - | - | - |
| 1777625327 | 15° C | 45% | 1027.6 hPa | 0 mm | - | - | - |
| 1777624421 | 15° C | 45% | 1027.5 hPa | 0 mm | - | - | - |
* Rain latest hour (hover to see other rain measurements)
** Current wind speed in m/s (hover to see current wind gust speed)